Location: Winthrop
(48.4780°N, 120.1850°W)
Time: 04:34:36
(UTC-08:00)

Vanguard 1 Rocket - Pass Details

Date: 29 November 2023
Orbit: 654 x 4218 km, 34.3° (Epoch: 24 February)

Event Time Altitude Azimuth Distance (km) Brightness Sun altitude
Rises 05:53:01 0° 223° (SW) 7,737 11.9 -15.3°
Reaches altitude 10° 05:59:52 10° 215° (SW) 6,172 11.4 -14.2°
Maximum altitude 06:13:18 29° 165° (SSE) 3,468 10.7 -12.1°
Drops below altitude 10° 06:21:32 10° 110° (ESE) 3,713 12.1 -10.8°
Sets 06:24:26 0° 99° (E) 4,315 12.7 -10.3°
